CZ-6A DEB, 54973

Orbit data source: Space-Track

CZ-6A DEB, 54973 is space debris in SSO originally from a launch on Fri, 11 Nov 2022 UTC launched from the Taiyaun Space Center, China (TSC). Debris objects in space refer to the collection of defunct objects orbiting the Earth. Examples of debris include non-operational satellites, rocket bodies, and fragments generated from explosions, collisions, or faulty payload assembly.

Loading next visibility...
Identifier
54973, 2022-151TN
Orbit
SSO
Country
Flag of CNCN / PRC
Related business
Manufacturer
SAST
Mission
Spacecraft
Bus & Motor
Unknown
Mass
Unknown
Launch date (UTC)
2022-11-11 (4 years ago)
Launch vehicle
Unknown
Launch site
Taiyaun Space Center, China (TSC)
Object type
Payload
Rocket body
Debris
Shape & HBR
Unknown shape, 0.1 m
Radar Cross Section
Medium (>0.1 m² and <1 m²)

Expand to show TLE details & history
Last TLE update: 1 day ago

TLE from 1 day ago
0 CZ-6A DEB
1 54973U 22151TN  26235.62085210  .00015091  00000-0  26169-2 0  9993
2 54973  98.7623 294.7423 0009193 177.2056 182.9200 14.68319513198018
Epoch: 2026-08-23T14:54Z
TLE epoch observation values (Epoch: 2026-08-23T14:54:01.621Z)
Latitude
-0°
Longitude
99.32126°
Altitude
675.886 km
Speed
7.515 km/s
True Right ascension
19h 38m 58s
True Declination
0° 00' 00"
Sunlit
Object was in full shadow at epoch
Visualization orbit readout
Latitude
Unknown
Longitude
Unknown
Altitude
Unknown
Speed
Unknown
Apparent Right ascension
Unknown
Apparent Declination
Unknown
Sunlit
N/A
Visualization observer readout
Local Sidereal Time
12:10:05
Azimuth
Unknown
Elevation
Unknown
Doppler factor
Unknown
Orbital elements
Apogee altitude
670.008 km
Perigee altitude
657.061 km
Semi-major axis
7,041.672 km
Eccentricity
0.00092
Inclination
98.7623°
RAAN
294.7423°
Arg. of periapsis
177.2056°
True anomaly
182.91464°
Mean anomaly
182.92°
Eccentric anomaly
182.91732°
Mean motion
3.67307 °/min
Orbital period
98.01 mins
BSTAR
0.0026169
Loading maneuver chart data...
Computing Atmospheric mass density...
Loading historical data...
Loading historical data...
Loading historical data...
Loading historical data...
Loading historical data...
Loading historical data...
Loading historical data...

Documentation

Showing up to 5 results
|